Temperature
3 3 3 3 3 2 2 4 4 6 5 6 6 5 5 4 3 3 3 3 3 2 2 2 2 2 2 2 2 2 2 2 2 2 2 2 2 2 2 2 2 2 2 2
1 2 2 2 2 3 2 3 3 4 4 5 5 4 4 3 3 2 2 2 2 2 2 2 2 2 2 2 2 1 1 1 1 1 1 1 2 2 2 2 1 1 2 1
3 2 1 2 3 3 3 3 3 3 4 5 4 4 3 3 2 2 2 2 2 2 1 1 2 1 1 1 1 1 1 1 1 1 1 1 1 1 1 1 1 1 1 1
1 1 2 4 3 3 2 2 2 3 3 3 3 2 2 2 2 2 1 1 1 1 1 1 1 1 1 1 1 1 1 0 0 0 0 0 0 1 1 1 1 1 1 1
1 2 3 4 2 1 1 2 2 2 2 2 1 1 2 2 1 1 1 1 1 1 1 1 1 1 1 0 0 0 -0 -0 -0 -0 -0 -0 -0 0 0 0 0 0 0 0
1 2 2 4 2 0 1 2 2 1 1 1 1 2 3 1 1 1 1 0 0 0 0 0 0 0 0 -0 -0 -0 -0 -0 -0 -0 -0 -0 -0 -0 -0 -0 -0 -0 -0 -0
1 1 3 2 -0 0 2 3 1 1 0 0 1 1 1 0 0 0 0 0 0 0 0 -0 -0 -0 -0 -0 -1 -1 -1 -1 -1 -1 -1 -1 -1 -1 -1 -1 -1 -1 -1 -1
-0 1 2 1 -0 1 2 1 0 -0 -0 -0 -0 -0 -0 -0 -1 -1 -0 -0 -0 -0 -0 -1 -1 -1 -1 -1 -1 -1 -1 -1 -1 -1 -1 -1 -1 -1 -1 -1 -1 -1 -1 -2
1 2 1 -1 -0 -0 -0 -1 -0 -1 -1 -1 -1 -1 -1 -1 -1 -1 -1 -1 -1 -1 -1 -1 -1 -1 -1 -1 -1 -1 -2 -2 -2 -2 -2 -2 -2 -2 -2 -2 -2 -2 -2 -2
-2 -0 -1 -1 -1 -1 -1 -1 -1 -1 -1 -1 -1 -1 -2 -2 -2 -1 -1 -1 -1 -1 -1 -1 -1 -1 -2 -2 -2 -2 -2 -2 -2 -2 -2 -2 -2 -2 -2 -2 -3 -3 -3 -3
-2 -1 -2 -1 -2 -2 -2 -2 -2 -2 -1 -2 -2 -2 -2 -2 -2 -2 -2 -2 -2 -2 -2 -2 -2 -2 -2 -2 -2 -2 -2 -2 -3 -3 -3 -2 -2 -3 -3 -3 -3 -3 -3 -3
-0 -1 -1 -1 -2 -2 -2 -2 -2 -2 -2 -2 -2 -2 -2 -2 -2 -2 -2 -2 -2 -2 -2 -2 -2 -2 -2 -2 -2 -3 -3 -3 -3 -3 -3 -3 -3 -3 -3 -3 -3 -3 -3 -3
-2 -2 -2 -2 -2 -2 -3 -3 -3 -2 -2 -2 -2 -2 -3 -3 -3 -3 -2 -2 -2 -2 -2 -2 -2 -2 -3 -3 -3 -3 -3 -3 -3 -3 -3 -3 -3 -3 -4 -4 -4 -4 -4 -3
-3 -3 -3 -3 -3 -3 -3 -3 -3 -3 -3 -3 -3 -3 -3 -3 -3 -3 -3 -2 -2 -2 -2 -3 -3 -3 -3 -3 -3 -4 -4 -3 -3 -3 -3 -3 -4 -4 -4 -4 -4 -4 -4 -4
-4 -4 -4 -4 -4 -4 -4 -4 -4 -4 -3 -3 -3 -3 -3 -3 -3 -3 -3 -3 -3 -3 -3 -3 -3 -3 -3 -4 -4 -4 -4 -4 -4 -4 -4 -4 -4 -4 -4 -4 -4 -4 -4 -4
-4 -4 -4 -4 -4 -4 -4 -4 -4 -4 -4 -4 -4 -4 -4 -4 -3 -3 -4 -4 -4 -3 -3 -3 -4 -4 -4 -4 -4 -4 -4 -4 -4 -4 -4 -4 -4 -4 -4 -4 -5 -5 -5 -4
-5 -5 -5 -5 -5 -5 -5 -5 -5 -4 -4 -4 -4 -4 -4 -4 -4 -4 -4 -4 -4 -4 -4 -4 -4 -4 -4 -4 -4 -4 -4 -4 -4 -5 -5 -5 -5 -5 -5 -5 -5 -5 -5 -5
-4 -5 -5 -5 -5 -5 -5 -5 -4 -5 -4 -4 -4 -4 -4 -4 -4 -4 -5 -4 -4 -4 -4 -5 -5 -5 -5 -5 -5 -5 -5 -5 -5 -5 -5 -5 -5 -5 -5 -5 -5 -5 -5 -5
-5 -5 -5 -5 -5 -5 -5 -5 -5 -5 -5 -5 -5 -5 -5 -5 -5 -5 -5 -5 -5 -5 -5 -5 -5 -5 -5 -5 -5 -5 -5 -5 -5 -5 -5 -5 -5 -5 -5 -5 -6 -6 -5 -5
-5 -5 -5 -5 -5 -5 -5 -5 -5 -5 -5 -5 -5 -5 -5 -5 -5 -5 -5 -5 -5 -5 -5 -5 -5 -5 -5 -5 -5 -6 -6 -6 -6 -6 -6 -6 -6 -6 -6 -6 -6 -6 -6 -6
-5 -5 -5 -5 -5 -5 -5 -5 -5 -5 -5 -5 -5 -5 -5 -5 -6 -6 -6 -6 -6 -6 -5 -5 -5 -5 -6 -6 -6 -6 -6 -6 -6 -6 -6 -6 -6 -6 -6 -6 -6 -6 -6 -6
-5 -5 -5 -5 -5 -5 -5 -5 -5 -5 -5 -5 -5 -6 -6 -6 -6 -6 -6 -6 -6 -6 -6 -6 -6 -6 -6 -6 -6 -6 -6 -6 -6 -6 -6 -6 -6 -6 -6 -6 -6 -6 -6 -6
-5 -6 -6 -6 -6 -6 -6 -6 -6 -6 -6 -6 -6 -6 -6 -6 -6 -6 -6 -6 -6 -6 -6 -6 -6 -6 -6 -6 -6 -6 -6 -6 -6 -6 -6 -6 -7 -7 -7 -7 -7 -7 -6 -6
-6 -6 -6 -6 -6 -6 -6 -6 -6 -6 -6 -6 -6 -6 -6 -6 -6 -6 -6 -6 -6 -6 -6 -6 -6 -7 -7 -7 -7 -7 -6 -7 -7 -7 -7 -7 -7 -7 -7 -7 -7 -7 -6 -6
-6 -6 -6 -6 -6 -6 -6 -6 -6 -6 -6 -6 -6 -6 -6 -6 -6 -6 -7 -7 -7 -7 -7 -7 -7 -7 -7 -7 -7 -7 -7 -7 -7 -7 -7 -7 -7 -7 -7 -7 -7 -7 -6 -6
-6 -6 -6 -6 -6 -6 -6 -6 -6 -7 -7 -7 -7 -7 -7 -7 -7 -7 -7 -7 -7 -7 -7 -7 -7 -7 -7 -7 -7 -7 -7 -7 -7 -7 -7 -7 -7 -7 -7 -7 -7 -7 -7 -7
-6 -6 -6 -6 -6 -7 -7 -7 -7 -7 -7 -7 -7 -7 -7 -7 -7 -7 -7 -7 -7 -7 -7 -7 -7 -7 -7 -7 -7 -7 -7 -7 -7 -7 -7 -7 -7 -7 -7 -7 -7 -7 -7 -7
Wind_Speed
8 7 5 7 9 10 13 13 12 13 15 16 14 12 11 10 9 9 8 7 6 5 4 4 3 3 3 3 3 3 4 4 4 4 3 3 3 4 4 4 5 5 5 5
6 6 6 9 12 13 15 15 17 18 18 15 12 10 10 10 9 9 8 7 6 5 4 4 4 3 3 3 3 3 3 3 3 3 3 3 2 3 3 4 4 4 5 5
5 3 4 9 11 12 10 11 11 15 14 11 11 10 10 9 9 9 8 7 6 5 5 4 4 3 3 3 3 2 3 3 3 3 3 2 2 2 3 4 4 4 4 5
3 1 8 5 1 6 10 11 12 12 12 10 10 11 9 8 8 8 7 6 6 5 4 4 4 3 2 2 2 2 2 3 3 2 2 2 2 2 2 2 3 3 3 3
3 5 9 7 4 4 6 9 8 11 12 11 9 9 7 6 6 7 7 6 5 4 3 3 3 2 1 2 2 2 2 3 3 3 2 2 3 2 2 2 2 2 2 2
4 5 7 5 2 2 3 6 4 6 9 8 6 6 7 6 5 5 5 4 3 3 2 2 2 2 1 2 2 2 3 3 3 3 3 3 3 2 2 2 2 1 1 2
8 8 8 4 0 3 4 5 5 6 7 7 6 7 7 7 6 4 4 3 2 2 2 2 2 1 2 2 3 3 2 2 2 2 3 3 2 2 2 1 1 1 1 1
6 7 8 3 4 5 7 8 8 8 8 8 9 8 7 7 5 4 4 3 2 2 2 2 2 1 2 2 2 2 1 1 2 2 2 2 2 2 2 2 2 1 1 1
7 7 4 4 5 6 7 9 9 8 8 8 9 8 7 7 6 5 4 3 2 2 2 3 2 2 2 2 2 1 1 1 2 2 2 2 3 3 2 2 2 2 2 1
6 9 9 9 9 9 9 9 10 10 9 8 8 8 7 6 6 5 4 3 3 2 2 3 3 2 2 2 2 2 2 2 2 2 2 2 2 3 3 3 3 2 2 2
8 9 9 8 8 10 10 9 10 10 8 8 7 7 7 6 6 5 4 4 3 3 3 3 3 2 2 2 2 2 2 2 2 2 2 2 2 2 3 3 3 3 3 3
8 7 7 8 9 9 9 10 9 9 8 7 6 6 6 6 6 5 5 4 3 3 4 3 3 3 2 2 2 2 2 2 2 2 2 2 2 1 1 2 3 3 3 3
9 9 9 10 10 9 9 9 8 8 7 7 5 5 5 5 5 4 4 4 4 4 3 3 3 3 3 2 2 3 2 2 2 2 2 2 2 2 1 1 1 2 2 2
8 8 8 9 9 9 8 8 7 6 6 5 5 4 4 4 4 4 4 4 3 3 3 3 2 2 2 2 2 2 2 3 3 2 2 2 2 2 2 2 1 1 1 2
7 6 7 8 7 7 6 6 6 6 5 5 4 3 3 3 4 4 3 3 2 2 2 2 2 2 2 2 2 2 2 2 2 2 2 2 2 2 2 2 2 2 1 1
6 5 5 6 6 6 6 6 5 6 5 5 4 4 3 3 3 3 2 2 2 2 2 2 3 3 2 2 2 2 2 2 2 2 2 2 2 2 2 2 2 2 2 2
3 4 5 6 7 7 6 6 5 6 5 5 5 4 3 2 2 2 3 3 2 3 3 3 3 2 2 2 2 2 2 2 2 2 2 2 2 2 2 2 2 2 2 2
5 5 6 6 6 6 7 6 5 5 5 5 4 2 2 2 3 3 3 3 2 2 2 2 2 2 2 2 2 2 2 2 2 2 2 2 2 2 2 2 2 2 2 2
4 4 4 5 5 5 5 5 5 4 4 3 3 3 3 3 3 3 2 2 2 3 3 2 2 2 2 2 2 2 2 2 2 2 2 2 2 2 2 2 2 2 2 2
3 4 4 4 4 4 4 4 4 4 4 3 2 2 3 3 3 2 2 2 3 3 3 3 2 2 2 2 2 1 2 2 2 2 2 2 2 2 2 2 2 2 2 2
3 3 3 3 4 4 4 4 4 4 4 3 2 3 3 3 2 2 2 2 3 3 3 3 2 2 2 2 2 1 2 2 2 2 2 2 2 2 2 2 2 2 2 2
3 3 3 3 3 4 4 4 3 3 3 3 2 2 2 3 2 2 3 3 3 3 2 2 2 2 2 1 1 1 2 2 2 2 2 2 2 2 2 2 2 2 2 2
3 3 3 3 3 4 4 4 3 3 3 3 3 3 3 3 2 2 3 2 2 3 3 2 3 3 1 1 1 1 1 2 1 2 2 2 2 2 2 2 2 2 2 2
3 2 3 3 2 3 3 4 3 3 3 3 3 3 3 2 2 3 3 4 4 3 2 2 3 2 1 0 1 1 1 1 1 1 1 1 1 2 2 2 2 2 2 2
2 2 2 2 2 3 3 3 3 2 2 2 2 2 2 2 2 3 3 3 3 3 2 2 2 1 1 0 1 1 1 1 1 1 1 1 1 1 1 1 2 2 2 2
2 2 2 3 3 3 2 2 2 2 2 2 2 2 2 2 2 2 2 2 2 2 1 1 1 1 1 0 0 1 1 1 1 1 1 1 1 1 1 1 2 2 2 2
2 2 2 2 2 2 2 2 2 2 2 2 2 2 2 2 1 1 1 1 1 1 1 1 1 0 0 0 0 0 0 1 1 1 1 1 1 1 1 2 2 2 2 2
Wind_Direction
266 272 250 244 245 231 227 239 250 264 266 279 295 299 301 305 309 309 308 306 298 295 290 285 277 262 254 248 242 231 225 229 235 233 231 229 222 209 208 212 216 213 211 216
269 257 254 264 257 246 244 246 252 265 273 281 292 297 297 298 300 300 299 297 294 290 286 280 278 279 273 256 247 237 230 233 237 234 223 221 211 196 204 215 213 207 209 215
259 281 277 261 248 237 236 234 242 254 264 288 295 295 294 295 292 289 292 290 287 286 284 284 280 276 265 273 253 245 243 237 235 231 221 213 200 192 202 207 207 211 216 219
248 224 244 257 225 234 239 247 241 253 271 283 289 297 293 287 286 286 287 285 282 284 288 292 291 284 282 283 263 250 252 241 231 223 225 209 197 201 198 197 205 214 219 221
216 245 268 277 254 226 235 261 252 253 271 287 307 306 292 294 284 277 278 280 277 277 281 288 285 283 284 290 281 259 255 249 236 217 212 206 202 204 203 195 204 218 221 218
217 241 254 274 316 284 230 265 258 250 272 291 307 296 301 326 313 297 292 288 282 284 281 283 287 278 268 275 278 265 261 258 245 225 208 207 208 205 210 206 204 208 227 232
231 243 261 279 244 158 227 281 306 279 276 278 270 272 296 308 310 302 295 294 293 289 281 283 282 265 259 271 277 278 271 261 242 224 212 207 198 197 192 191 186 183 209 238
214 234 252 200 161 217 269 302 296 291 285 280 277 283 287 293 297 294 288 284 282 281 291 295 280 243 249 270 288 288 260 240 228 224 212 192 178 184 190 187 184 183 197 239
214 234 281 210 240 273 295 290 291 289 287 280 278 279 282 286 287 282 276 270 269 254 278 294 288 257 250 271 282 272 248 232 227 218 209 193 184 184 193 196 196 198 205 217
251 261 273 273 277 285 287 285 290 289 284 276 272 272 276 278 280 280 276 265 255 243 251 274 286 280 262 263 253 238 238 237 224 211 198 194 198 193 198 204 206 205 205 221
254 274 287 276 279 286 290 292 293 292 285 275 265 264 265 270 272 272 272 264 250 242 247 259 269 267 266 254 229 232 237 236 227 216 203 203 205 205 213 223 222 222 221 222
252 265 266 283 298 298 295 295 296 295 297 288 265 259 265 269 269 265 263 256 247 246 248 254 256 258 260 245 223 218 229 234 228 221 217 206 195 202 208 233 245 247 246 245
262 278 275 282 293 299 296 298 300 297 292 293 288 269 264 267 267 262 260 253 246 247 247 247 245 251 257 243 227 224 236 241 233 224 218 200 197 202 220 238 218 226 237 245
266 273 275 282 292 303 304 305 307 305 303 299 294 288 275 271 271 268 266 264 258 253 251 245 241 254 266 247 230 233 243 243 232 227 225 210 203 206 211 220 235 250 247 243
278 275 274 288 298 307 313 315 315 313 316 314 308 296 285 279 280 284 289 288 269 253 253 246 243 262 272 248 234 238 241 235 232 226 222 218 203 204 210 218 226 248 275 260
290 289 287 293 300 310 317 319 313 310 313 313 311 307 301 295 297 306 309 291 256 258 263 256 258 269 263 239 232 239 241 238 233 215 209 212 205 203 207 211 216 231 243 256
282 289 291 297 300 306 308 307 303 302 308 306 308 312 316 317 315 311 312 301 284 277 274 265 270 276 257 236 226 234 241 227 220 214 208 209 210 212 212 212 217 228 244 254
267 273 273 276 284 292 300 303 301 302 302 305 313 313 307 292 290 298 309 313 307 304 293 289 285 272 259 247 235 239 236 226 220 217 209 207 209 212 216 217 221 233 251 263
288 292 294 294 293 291 295 299 303 304 306 308 306 294 291 289 292 299 307 305 293 294 304 308 304 285 271 258 250 237 229 223 220 211 206 206 212 212 216 221 228 238 246 255
304 309 311 313 314 308 303 306 308 306 306 303 296 295 298 301 304 302 293 281 283 296 306 304 298 288 277 260 254 235 222 218 216 211 207 214 218 221 222 226 232 240 246 253
306 311 312 316 317 318 313 309 307 305 307 304 287 284 290 298 301 295 285 292 308 313 306 299 296 288 275 264 244 231 218 218 219 213 209 213 219 223 226 228 232 239 247 253
299 304 307 312 316 320 321 318 309 304 307 306 297 289 290 295 298 296 286 285 306 311 309 294 289 287 279 264 237 226 219 221 221 216 213 213 216 222 231 238 242 246 252 254
291 294 299 305 307 310 317 319 312 303 297 294 287 279 277 279 276 274 292 304 304 303 306 292 300 300 282 253 238 225 219 222 224 219 217 216 217 222 230 240 249 253 255 259
284 291 299 306 309 309 314 318 316 309 299 296 290 282 278 281 284 278 282 295 300 300 297 302 307 304 287 258 246 228 223 229 230 226 224 220 223 229 233 239 249 255 256 262
273 278 283 290 299 298 300 307 315 321 320 314 311 304 285 274 275 289 292 297 308 311 306 313 327 332 314 276 236 222 229 231 227 229 233 230 233 239 241 243 246 253 257 261
271 276 279 283 283 283 286 288 295 307 313 313 320 323 320 310 298 299 303 312 319 326 321 312 318 319 294 271 220 216 226 240 249 244 237 248 254 253 252 254 257 259 265 274
280 280 285 294 291 279 271 271 275 281 286 291 306 318 322 322 323 328 330 330 335 332 329 335 345 349 332 265 226 232 246 255 253 251 250 253 258 264 263 261 265 271 276 276
Height
1496 1495 1496 1495 1495 1495 1494 1487 1483 1472 1471 1466 1467 1468 1467 1466 1465 1463 1462 1461 1460 1459 1458 1457 1457 1457 1457 1457 1457 1457 1456 1456 1456 1457 1457 1457 1458 1458 1459 1459 1460 1461 1462 1463
1497 1495 1495 1494 1489 1488 1487 1485 1480 1476 1472 1467 1467 1467 1465 1464 1462 1461 1459 1458 1457 1456 1456 1455 1454 1454 1454 1454 1454 1454 1453 1453 1453 1453 1453 1454 1454 1454 1455 1455 1456 1457 1458 1459
1489 1493 1494 1486 1480 1480 1480 1477 1476 1472 1467 1465 1465 1463 1463 1461 1460 1458 1457 1456 1455 1454 1453 1453 1452 1452 1451 1451 1451 1451 1450 1450 1450 1450 1450 1450 1451 1451 1451 1452 1453 1454 1455 1456
1491 1495 1489 1471 1474 1474 1474 1472 1472 1469 1466 1465 1463 1461 1460 1459 1457 1456 1454 1453 1452 1452 1451 1450 1450 1450 1449 1449 1449 1448 1448 1448 1448 1447 1447 1447 1448 1448 1449 1449 1450 1451 1452 1452
1490 1484 1473 1470 1472 1474 1473 1468 1466 1466 1463 1462 1461 1459 1456 1455 1454 1453 1452 1451 1450 1449 1449 1448 1448 1447 1447 1446 1446 1446 1445 1445 1445 1445 1444 1445 1445 1445 1446 1447 1447 1448 1449 1449
1487 1482 1473 1465 1470 1471 1472 1465 1461 1462 1461 1460 1460 1457 1453 1452 1451 1450 1449 1448 1447 1446 1446 1446 1445 1445 1445 1444 1444 1443 1443 1443 1443 1443 1443 1443 1443 1443 1444 1445 1445 1445 1446 1447
1483 1478 1467 1467 1469 1470 1469 1460 1460 1459 1458 1458 1457 1455 1453 1450 1449 1447 1446 1445 1444 1444 1443 1443 1443 1443 1442 1442 1442 1441 1441 1441 1440 1441 1441 1441 1441 1442 1442 1442 1443 1443 1444 1445
1481 1477 1468 1466 1468 1467 1461 1459 1458 1456 1456 1454 1453 1451 1449 1448 1446 1444 1443 1443 1442 1441 1441 1441 1441 1440 1440 1440 1440 1439 1439 1438 1438 1438 1439 1439 1439 1440 1440 1441 1441 1441 1442 1442
1471 1466 1463 1464 1463 1461 1460 1458 1455 1454 1452 1451 1449 1447 1446 1444 1443 1442 1441 1440 1440 1439 1438 1438 1438 1438 1438 1438 1437 1437 1436 1436 1436 1436 1436 1437 1437 1438 1438 1439 1439 1439 1440 1440
1470 1462 1462 1461 1460 1458 1456 1454 1452 1450 1448 1447 1445 1444 1442 1441 1440 1439 1438 1438 1437 1437 1436 1436 1436 1436 1436 1436 1435 1435 1434 1434 1434 1434 1434 1435 1435 1436 1436 1436 1437 1437 1437 1437
1465 1461 1459 1456 1456 1454 1452 1450 1448 1446 1444 1443 1441 1439 1439 1438 1437 1436 1435 1435 1435 1434 1434 1433 1433 1433 1433 1433 1433 1433 1432 1432 1431 1432 1432 1432 1433 1433 1434 1434 1434 1435 1435 1435
1457 1456 1457 1453 1452 1451 1449 1447 1445 1442 1440 1439 1438 1436 1435 1434 1434 1433 1432 1432 1432 1432 1431 1431 1431 1430 1431 1431 1431 1430 1430 1429 1429 1429 1429 1429 1430 1431 1431 1432 1432 1433 1433 1433
1455 1453 1453 1450 1449 1447 1445 1443 1441 1440 1437 1435 1434 1433 1432 1431 1430 1430 1429 1429 1429 1428 1428 1428 1428 1428 1428 1428 1428 1428 1427 1427 1427 1427 1427 1427 1427 1428 1428 1430 1430 1431 1431 1431
1451 1450 1448 1446 1445 1444 1442 1440 1438 1436 1434 1433 1431 1430 1429 1428 1427 1427 1426 1426 1426 1426 1425 1425 1425 1425 1425 1425 1425 1425 1425 1425 1424 1424 1425 1425 1425 1426 1426 1427 1427 1428 1429 1429
1447 1447 1445 1443 1442 1440 1438 1437 1434 1433 1431 1430 1429 1427 1426 1425 1424 1424 1423 1423 1423 1423 1423 1422 1422 1422 1422 1422 1422 1422 1422 1422 1422 1422 1423 1423 1423 1424 1425 1425 1425 1426 1426 1427
1444 1443 1441 1440 1438 1437 1435 1433 1432 1430 1429 1427 1426 1425 1424 1423 1422 1422 1421 1421 1421 1420 1420 1420 1419 1419 1419 1420 1420 1420 1420 1420 1420 1420 1421 1421 1421 1422 1423 1423 1423 1424 1424 1424
1441 1439 1438 1436 1435 1434 1433 1431 1430 1428 1426 1425 1424 1423 1422 1421 1421 1420 1419 1419 1418 1418 1418 1418 1417 1417 1417 1417 1417 1417 1417 1418 1418 1418 1419 1419 1420 1420 1421 1421 1421 1422 1422 1422
1439 1437 1436 1434 1433 1431 1430 1429 1427 1426 1425 1424 1423 1422 1421 1420 1419 1418 1418 1417 1416 1416 1416 1416 1415 1415 1415 1415 1415 1415 1415 1415 1416 1416 1417 1418 1418 1419 1419 1419 1420 1420 1420 1421
1435 1434 1433 1432 1431 1429 1428 1426 1425 1424 1423 1422 1421 1420 1419 1419 1418 1417 1416 1415 1414 1414 1414 1414 1414 1413 1413 1413 1414 1414 1414 1414 1414 1415 1415 1416 1416 1417 1417 1418 1418 1418 1418 1418
1433 1432 1431 1430 1429 1427 1426 1424 1423 1422 1421 1420 1420 1419 1417 1417 1416 1415 1414 1413 1413 1413 1412 1412 1412 1412 1412 1412 1412 1412 1412 1412 1413 1413 1414 1414 1415 1415 1415 1416 1416 1416 1416 1416
1431 1430 1429 1427 1426 1425 1424 1423 1421 1420 1419 1419 1418 1417 1416 1415 1414 1413 1412 1412 1412 1411 1411 1410 1410 1410 1410 1410 1410 1410 1410 1411 1411 1412 1412 1413 1413 1413 1413 1414 1414 1414 1414 1414
1428 1427 1426 1425 1424 1423 1422 1421 1420 1419 1418 1417 1416 1415 1414 1413 1413 1412 1411 1411 1410 1410 1409 1409 1409 1409 1409 1409 1409 1409 1409 1409 1410 1410 1410 1411 1411 1411 1411 1411 1411 1411 1412 1412
1426 1425 1424 1423 1422 1421 1420 1419 1418 1417 1416 1415 1414 1413 1413 1412 1411 1410 1410 1409 1409 1408 1408 1408 1408 1407 1407 1407 1407 1407 1408 1408 1408 1408 1409 1409 1409 1409 1409 1409 1409 1409 1409 1409
1424 1423 1422 1421 1420 1419 1418 1417 1416 1415 1414 1414 1413 1412 1411 1410 1410 1409 1408 1408 1407 1407 1407 1406 1406 1406 1406 1406 1406 1406 1406 1406 1407 1407 1407 1407 1407 1407 1407 1407 1407 1407 1408 1408
1422 1421 1420 1420 1419 1417 1416 1415 1414 1413 1413 1412 1411 1410 1410 1409 1408 1407 1407 1406 1406 1406 1405 1405 1405 1404 1404 1404 1404 1404 1405 1405 1405 1405 1405 1405 1405 1405 1405 1405 1405 1406 1406 1406
1420 1419 1418 1418 1417 1416 1415 1414 1413 1412 1411 1410 1409 1409 1408 1408 1407 1406 1406 1405 1405 1404 1404 1404 1403 1403 1403 1403 1403 1403 1403 1403 1404 1404 1404 1403 1403 1404 1403 1404 1404 1404 1404 1404
1418 1417 1416 1416 1415 1414 1413 1412 1411 1410 1409 1409 1408 1407 1407 1406 1406 1405 1404 1404 1403 1403 1403 1403 1402 1402 1402 1402 1402 1402 1402 1402 1402 1402 1402 1402 1402 1402 1402 1402 1402 1402 1402 1402